CYAY

Saint Anthony  Airport

St. Anthony, Canada
Issued Wind Visibility Ceiling Temperature Dew Point Humidity Barometer
Nov-18
02:00 UTC
090°
14 KTS
Gust 19 KTS
9 miles Overcast
1,000' AGL
C
36° F
C
32° F
87% 29.7" Hg
1006 hPa
MVFR
Nov-18
01:32 UTC
070°
12 KTS
Gust 17 KTS
9 miles Overcast
1,000' AGL
C
34° F
C
32° F
93% 29.7" Hg
1006.1 hPa
MVFR
Nov-18
01:00 UTC
060°
11 KTS
Gust 16 KTS
9 miles Overcast
1,200' AGL
C
34° F
C
32° F
93% 29.7" Hg
1006.2 hPa
MVFR
Nov-18
00:00 UTC
050°
14 KTS
9 miles Overcast
1,200' AGL
C
34° F
-1° C
30° F
87% 29.71" Hg
1006.6 hPa
MVFR
Nov-17
23:00 UTC
100°
10 KTS
Gust 16 KTS
9 miles Overcast
1,400' AGL
C
34° F
-1° C
30° F
87% 29.77" Hg
1008.3 hPa
MVFR
Nov-17
22:00 UTC
050°
10 KTS
Gust 15 KTS
9 miles Overcast
1,200' AGL
C
34° F
-1° C
30° F
87% 29.74" Hg
1007.4 hPa
MVFR
Nov-17
21:00 UTC
060°
11 KTS
9 miles Overcast
1,400' AGL
C
34° F
-1° C
30° F
87% 29.77" Hg
1008.3 hPa
MVFR
Nov-17
20:00 UTC
090°
10 KTS
9 miles Overcast
1,400' AGL
C
34° F
-1° C
30° F
87% 29.8" Hg
1009.5 hPa
MVFR
Nov-17
19:00 UTC
070°
15 KTS
9 miles Overcast
1,400' AGL
C
34° F
-2° C
28° F
81% 29.78" Hg
1008.9 hPa
MVFR
Nov-17
18:00 UTC
060°
12 KTS
9 miles Overcast
1,400' AGL
C
34° F
-2° C
28° F
81% 29.81" Hg
1009.8 hPa
MVFR
Nov-17
17:00 UTC
080°
12 KTS
9 miles Overcast
1,200' AGL
C
34° F
-1° C
30° F
87% 29.85" Hg
1011 hPa
MVFR
Nov-17
16:00 UTC
090°
10 KTS
Gust 15 KTS
9 miles Overcast
1,000' AGL
C
32° F
-2° C
28° F
87% 29.86" Hg
1011.5 hPa
MVFR
Nov-17
15:00 UTC
080°
11 KTS
9 miles Overcast
1,000' AGL
C
32° F
-2° C
28° F
87% 29.88" Hg
1012.3 hPa
MVFR
Nov-17
14:00 UTC
070°
12 KTS
9 miles Overcast
1,000' AGL
-1° C
30° F
-2° C
28° F
93% 29.92" Hg
1013.5 hPa
MVFR
Nov-17
13:00 UTC
070°
7 KTS
9 miles Overcast
1,200' AGL
-1° C
30° F
-2° C
28° F
93% 29.95" Hg
1014.6 hPa
MVFR
Nov-17
12:00 UTC
050°
8 KTS
9 miles Overcast
1,200' AGL
-1° C
30° F
-3° C
27° F
86% 29.95" Hg
1014.4 hPa
MVFR
Nov-17
11:00 UTC
060°
7 KTS
9 miles Overcast
1,200' AGL
-1° C
30° F
-3° C
27° F
86% 29.96" Hg
1015 hPa
MVFR
Nov-17
10:00 UTC
060°
6 KTS
9 miles Overcast
1,200' AGL
-2° C
28° F
-3° C
27° F
93% 29.96" Hg
1014.8 hPa
MVFR
Nov-17
09:00 UTC
040°
5 KTS
9 miles Overcast
1,200' AGL
-2° C
28° F
-3° C
27° F
93% 29.96" Hg
1015 hPa
MVFR
Nov-17
08:00 UTC
050°
4 KTS
9 miles Overcast
1,000' AGL
-3° C
27° F
-3° C
27° F
100% 29.98" Hg
1015.4 hPa
MVFR
Nov-17
07:00 UTC
310°
5 KTS
9 miles Overcast
1,000' AGL
-3° C
27° F
-4° C
25° F
93% 29.99" Hg
1015.8 hPa
MVFR
Nov-17
06:00 UTC
360°
3 KTS
9 miles Broken
1,000' AGL
-4° C
25° F
-5° C
23° F
93% 29.99" Hg
1015.8 hPa
MVFR
Nov-17
05:48 UTC
040°
2 KTS
9 miles Broken
1,000' AGL
-4° C
25° F
-5° C
23° F
93% 30" Hg
1016.1 hPa
MVFR
Nov-17
05:00 UTC
100°
7 KTS
9 miles   -4° C
25° F
-5° C
23° F
93% 30" Hg
1016.2 hPa
VFR
Nov-17
04:00 UTC
200°
4 KTS
9 miles   -3° C
27° F
-4° C
25° F
93% 30.03" Hg
1017.4 hPa
VFR
Nov-17
03:00 UTC
110°
3 KTS
9 miles   -3° C
27° F
-4° C
25° F
93% 30.03" Hg
1017.1 hPa
VFR